Location: Barwoudswaarder
(52.0864°N, 4.8558°E)
Time: 08:43:24
(UTC+00:00)

Daily predictions for brighter satellites

Satellite Brightness Start Highest point End
(mag) Time Altitude Azimuth Time Altitude Azimuth Time Altitude Azimuth
Meteor 1-11 Rocket 4.0 15:57:47 10° N 16:03:39 54° ENE 16:09:27 10° SSE
Cosmos 2297 4.3 15:58:27 10° NNW 16:03:42 35° NE 16:08:53 10° ESE
STARLINK-46 3.0 16:02:59 10° SW 16:05:35 50° SSE 16:08:11 10° E
Okean O Rocket 1.6 16:02:09 10° SSE 16:06:29 77° ENE 16:10:51 10° NNW
Cosmos 1707 Rocket 3.7 16:02:22 10° S 16:06:45 59° E 16:11:11 10° NNE
Meteor 1-27 Rocket 4.5 16:03:04 10° SSE 16:08:12 34° E 16:13:27 10° NNE
H-2A R/B 3.6 16:08:12 10° SE 16:11:21 27° ENE 16:14:31 10° N
Helios 1A Rocket 2.9 16:09:51 10° SSE 16:13:57 85° ENE 16:18:03 10° NNW
Meteor 1-28 Rocket 3.5 16:10:20 10° N 16:14:06 72° WNW 16:17:51 10° SSW
COSMOS 2455 3.9 16:09:11 10° WSW 16:14:44 37° NW 16:20:18 10° NNE
Cosmos 1689 Rocket 2.2 16:13:19 10° NNE 16:16:21 57° ESE 16:19:19 10° S
Cosmos 2228 Rocket 4.4 16:12:19 10° SW 16:16:41 42° WNW 16:21:04 10° N
Landsat 5 4.4 16:13:28 10° N 16:17:17 45° WNW 16:21:12 10° SW
FENGYUN 3A 4.1 16:13:09 10° S 16:18:34 69° WSW 16:24:00 10° NNW
Genesis I 3.3 16:16:18 10° NW 16:20:10 55° NE 16:23:58 10° ESE
Cosmos 2279 Rocket 4.2 16:14:32 10° NNW 16:20:50 83° W 16:27:06 10° S
COSMOS 2428 2.7 16:16:35 10° SSW 16:22:15 82° ESE 16:27:59 10° NNE
Cosmos 1908 Rocket 4.2 16:19:12 10° N 16:23:13 33° ENE 16:27:11 10° SE
NOSS 3-1 (C) 4.4 16:18:59 10° NW 16:25:18 39° NNE 16:32:36 10° E
Cosmos 2251 Rocket 3.8 16:20:38 10° S 16:25:43 49° ESE 16:30:47 10° NNE
Meteor 1-5 Rocket 4.2 16:20:21 10° NNW 16:25:57 86° ENE 16:31:20 10° SSE
SL-16 R/B 4.3 16:21:05 10° N 16:25:57 25° NW 16:30:48 10° WSW
CZ-4B R/B 2.0 16:22:59 10° N 16:26:29 61° WNW 16:29:53 10° SSW
Cosmos 1666 3.4 16:23:23 10° N 16:26:44 30° ENE 16:30:05 10° SE
Okean-O 3.4 16:24:31 10° SE 16:28:24 31° ENE 16:32:19 10° N
RESURS DK-1 2.4 16:25:44 10° SSW 16:29:51 88° SE 16:34:02 10° NNE
COSMO-SKYMED 1 4.4 16:28:54 11° ENE 16:30:16 12° E 16:32:08 10° ESE
Envisat 3.6 16:26:44 10° SE 16:31:17 34° ENE 16:35:51 10° N
NOAA 12 4.5 16:27:32 10° SE 16:32:27 41° ENE 16:37:23 10° N
H-2A R/B 4.2 16:30:09 10° NNW 16:33:11 20° WNW 16:36:13 10° WSW
USA 267 3.5 16:26:43 10° ESE 16:33:16 79° SSW 16:39:52 10° WNW
Okean 1-7 4.4 16:31:08 10° SE 16:34:11 19° E 16:36:59 11° NE
USA 229 DEB 4.3 16:28:39 10° NW 16:35:14 40° NNE 16:42:07 10° E
USA 229 4.3 16:28:45 10° NW 16:35:19 40° NNE 16:42:11 10° E
CZ-4B R/B 3.8 16:30:17 10° S 16:35:35 62° WSW 16:41:01 10° NNW
Cosmos 1992 Rocket 4.2 16:32:30 10° NNW 16:37:45 80° WSW 16:42:58 10° SSE
YAOGAN 1 3.9 16:36:42 10° E 16:39:39 18° ENE 16:42:36 10° NNE
NOSS 3-1 (A) 4.5 16:34:09 10° NW 16:40:22 37° NNE 16:46:46 13° ENE
NOSS 3-4 (A) 3.8 16:34:21 10° WSW 16:40:24 62° NW 16:46:39 11° NE
NOSS 3-4 (C) 3.8 16:34:27 10° WSW 16:40:30 63° NW 16:46:44 11° NE
Feng Yun 1-1 Rocket 4.1 16:35:39 10° SSE 16:40:59 70° ENE 16:46:25 10° NNW
Cosmos 1536 2.8 16:37:27 10° N 16:41:29 64° ENE 16:45:27 10° SSE
Cosmos 2322 4.4 16:36:15 10° SW 16:41:48 51° NW 16:47:22 10° NNE
Cosmos 2278 Rocket 2.9 16:36:14 10° NW 16:41:49 59° WSW 16:47:21 10° SSE
Nadezhda 4 Rocket 4.1 16:38:04 10° S 16:44:15 60° E 16:50:28 10° NNE
Cosmos 1733 Rocket 3.4 16:40:40 10° NNW 16:45:03 71° W 16:49:26 10° S
Cosmos 2360 Rocket 3.5 16:40:56 10° WSW 16:46:04 34° NW 16:51:14 10° NNE
Lacrosse 5 rocket 1.3 16:48:28 10° WSW 16:52:45 87° SSE 16:55:35 19° ENE
Cosmos 2369 Rocket 3.0 16:48:12 10° NNW 16:53:05 29° NE 16:57:15 13° E
Cosmos 1980 Rocket 4.3 16:51:36 10° NW 16:54:14 13° NNW 16:56:52 10° NNE
AQUARIUS 4.1 16:50:31 10° SSE 16:55:00 78° ENE 16:59:32 10° NNW
SMAP 3.0 16:51:03 10° SSE 16:55:43 86° ENE 17:00:25 10° NNW
YAOGAN 6 3.4 16:54:14 10° SE 16:57:22 29° ENE 17:00:32 10° N
Cosmos 1743 3.4 16:54:53 10° N 16:58:22 31° ENE 17:01:50 10° SE
Cosmos 921 Rocket 3.0 16:54:10 10° NNW 16:58:23 54° ENE 17:02:38 10° SE
SL-4 R/B 1.8 16:54:53 10° W 16:58:38 82° S 17:01:16 20° E
FengYun 1-2 T 4.5 16:54:56 10° SE 17:00:07 45° ENE 17:05:22 10° N
SL-16 R/B 3.0 16:56:31 10° SSE 17:01:25 31° ESE 17:04:31 19° ENE
IRS-1C Rocket 4.3 16:56:18 10° SSE 17:01:35 79° WSW 17:06:53 10° NNW
Cosmos 2344 4.4 16:53:54 10° NW 17:02:15 51° NNE 17:12:23 13° E
Cosmos 1867 3.6 16:59:31 10° NW 17:04:59 63° NE 17:10:23 10° SE
FALCON 9 DEB 4.3 17:01:58 10° SSW 17:05:06 31° SSE 17:06:35 22° ESE
Okean 1 4.4 17:01:57 10° SE 17:05:08 23° E 17:05:30 23° E
Aureole 1 Rocket 2.9 17:02:23 10° S 17:05:11 35° ESE 17:06:13 27° ENE
Cosmos 2026 Rocket 4.3 17:00:21 10° SSE 17:05:58 42° E 17:11:37 10° NNE
NOSS 0 Rocket 4.0 17:02:39 10° SSW 17:08:54 89° SE 17:14:33 13° NNE
CORIOLIS 4.2 17:04:17 10° SSE 17:09:45 86° WSW 17:15:14 10° NNW
Cosmos 2237 Rocket 2.2 17:04:30 10° SSW 17:10:12 79° ESE 17:15:04 15° NNE
Cosmos 1812 3.2 17:09:41 10° SSW 17:13:31 60° WNW 17:17:22 10° N
Cosmos 2333 Rocket 3.0 17:08:17 10° SW 17:13:51 49° NW 17:19:21 11° NNE
CZ-4 R/B 1.8 17:10:20 10° SE 17:13:54 36° ENE 17:17:28 10° N
ATLAS 5 CENTAUR R/B 1.6 17:12:01 10° SSW 17:13:52 30° SE 17:13:52 30° SE
Ariane Rocket 4.2 17:15:01 22° NE 17:15:01 22° NE 17:18:29 10° N
Cosmos 2322 Rocket 4.2 17:11:06 10° WNW 17:14:55 18° NNW 17:18:46 10° NNE
SeaSat 1 3.8 17:16:07 19° NE 17:16:29 19° NE 17:19:56 10° N
Cosmos 1782 Rocket 3.5 17:13:58 10° N 17:18:18 63° ENE 17:22:36 10° SSE
ATLAS 2AS CENTAUR R/B 3.7 17:10:59 10° W 17:18:41 47° NNW 17:24:34 17° NE
SKYMED 2 4.3 17:17:33 27° ENE 17:18:53 33° E 17:22:49 10° SSE
Cosmos 292 Rocket 4.4 17:14:08 10° NNW 17:18:57 60° WSW 17:23:43 10° S
Cosmos 2219 Rocket 3.1 17:14:38 10° WSW 17:20:01 45° NW 17:25:14 11° NNE
Lacrosse 4 Rocket 3.4 17:19:43 10° N 17:21:30 14° NNE 17:21:30 14° NNE
Cosmos 1943 Rocket 2.4 17:18:11 10° NNW 17:23:40 47° NE 17:27:53 16° ESE
SL-16 R/B 4.3 17:21:34 10° WNW 17:25:00 16° NNW 17:28:25 10° NNE
Okean 2 Rocket 3.5 17:22:47 10° N 17:27:00 38° ENE 17:31:12 10° SE
STARLINK-67 2.3 17:24:43 10° W 17:27:30 78° N 17:27:37 74° NE
Sich 1 Rocket 3.5 17:24:39 10° N 17:29:03 62° ENE 17:33:23 10° SSE
Cosmos 1862 Rocket 4.5 17:25:06 10° SSW 17:29:21 49° WNW 17:33:40 10° N
Cosmos 1703 Rocket 3.5 17:28:15 10° S 17:32:42 74° E 17:36:21 15° NNE
STARLINK-52 3.9 17:30:09 10° SW 17:33:26 39° SSE 17:33:53 37° SE
Cosmos 1975 3.0 17:30:06 10° N 17:33:59 47° ENE 17:37:51 10° SSE
Cosmos 1190 Rocket 4.3 17:29:30 10° S 17:34:23 43° ESE 17:36:02 33° ENE
CSL-04 Rocket 3.6 17:33:46 10° SE 17:38:56 59° ENE 17:44:11 10° N
Cosmos 1627 Rocket 4.3 17:33:04 10° S 17:39:09 74° E 17:45:18 10° NNE
STARLINK-46 3.0 17:37:07 10° W 17:39:21 54° WNW 17:39:21 54° WNW
USA 215 3.2 17:36:17 27° ENE 17:40:09 90° S 17:46:43 10° WSW
STARLINK-60 3.2 17:38:01 10° WSW 17:41:21 60° SSE 17:41:33 58° SE
STARLINK-29 3.6 17:38:09 10° SW 17:41:32 46° SSE 17:41:45 46° SE
Cosmos 1980 4.1 17:36:17 10° SW 17:41:53 63° NW 17:46:04 18° NNE
Cosmos 1441 Rocket 3.8 17:39:16 10° NNW 17:43:02 56° W 17:46:43 10° S
Cosmos 2195 Rocket 4.4 17:37:02 10° S 17:43:17 85° E 17:49:38 10° N
Cosmos 2297 4.4 17:42:35 10° NW 17:48:10 57° WSW 17:53:41 10° S
Cosmos 1655 Rocket 4.2 17:43:51 10° SSE 17:49:46 45° E 17:53:06 24° NNE
Cosmos 614 Rocket 3.8 17:45:00 10° SSW 17:50:02 67° ESE 17:51:51 39° NE
COBE Rocket 4.4 17:46:03 10° N 17:50:35 54° WNW 17:55:10 10° SSW
NOAA 15 4.4 17:47:12 10° SSE 17:52:27 79° ENE 17:57:43 10° NNW
Cosmos 1092 Rocket 4.2 17:47:53 10° SSW 17:54:10 72° WNW 18:00:26 10° N
Exosat Rocket 4.4 17:49:56 10° SW 17:54:47 45° NW 17:58:28 17° NNE
Cosmos 2263 4.4 17:49:13 10° NNW 17:54:52 50° NE 17:56:09 43° E
Cosmos 1174 3.8 17:52:15 10° SSW 17:56:59 69° SE 17:57:14 67° E
CSL-04 Debris 4.0 17:52:36 10° SSE 17:58:03 81° ENE 18:03:31 10° NNW
Okean-O 4.1 18:00:41 10° SSW 18:04:49 38° W 18:08:59 10° NNW
COSMO-SKYMED 1 2.4 18:06:07 54° NNE 18:07:05 90° ENE 18:11:26 10° SSW
COSMOS 2428 4.4 18:02:24 10° W 18:07:12 27° NW 18:10:56 15° N
BREEZE-M R/B 3.3 18:04:00 10° W 18:08:30 44° SSW 18:08:34 44° SSW
Envisat 4.2 18:05:25 10° S 18:10:14 43° W 18:15:05 10° NNW
Okean 1-7 3.6 18:07:03 10° SSW 18:11:21 56° WNW 18:13:53 23° N
Cosmos 1140 Rocket 3.3 18:06:48 10° SSW 18:11:53 68° ESE 18:12:14 66° E
Meteor 2-13 Rocket 4.3 18:06:17 10° S 18:12:14 61° E 18:14:11 41° NE
YAOGAN 1 2.8 18:10:58 10° S 18:15:17 70° WSW 18:19:38 10° NNW
Meteor 2-9 Rocket 4.3 18:09:57 10° NNW 18:15:52 85° W 18:21:40 10° S
Cosmos 468 Rocket 4.4 18:11:42 10° NNW 18:15:40 44° NNE 18:15:40 44° NNE
NOSS 3-1 (C) 3.9 18:10:00 10° NW 18:17:13 78° NE 18:20:52 37° ESE
Meteor 1-18 Rocket 4.2 18:14:01 10° SSW 18:19:44 83° WNW 18:23:06 25° N
Cosmos 407 Rocket 3.5 18:15:31 10° SSW 18:20:44 77° WNW 18:22:12 48° NNE
Cosmos 1023 Rocket 4.3 18:16:33 10° SSW 18:21:39 82° ESE 18:21:54 79° ENE
NOAA 11 4.1 18:17:26 10° SSE 18:22:55 85° WSW 18:28:27 10° NNW
S3M 3.9 18:17:49 10° N 18:24:05 85° W 18:30:14 10° S
USA 229 DEB 3.7 18:19:51 10° NW 18:27:04 86° NE 18:29:44 44° SE
USA 229 3.7 18:19:57 10° NW 18:27:09 86° NE 18:29:47 45° SE
H-2A R/B 4.4 18:31:58 11° N 18:31:58 11° N 18:32:03 10° N
CZ-4C R/B 4.2 18:27:29 10° S 18:28:04 13° S 18:28:04 13° S
Cosmos 2360 Rocket 4.4 18:29:03 10° NW 18:31:55 14° NNW 18:33:57 12° N
Lacrosse 5 rocket 2.6 18:28:14 10° W 18:31:14 36° NW 18:31:14 36° NW
NOSS 3-1 (A) 3.9 18:25:17 10° NW 18:32:27 71° NE 18:34:15 55° E
Cosmos 2266 Rocket 4.2 18:28:48 10° S 18:33:58 55° SE 18:33:58 55° SE
Cosmos 2369 Rocket 2.3 18:32:02 10° NNW 18:37:40 73° WSW 18:39:07 50° S
SL-4 R/B 3.2 18:34:21 10° W 18:36:53 39° W 18:36:53 39° W
Cosmos 1980 Rocket 4.4 18:38:41 10° NNW 18:40:06 12° N 18:40:06 12° N
SL-16 R/B 2.7 18:39:39 10° SW 18:45:15 58° NW 18:46:25 48° N
Cosmos 1656 Rocket 4.4 18:42:51 10° NNW 18:46:28 42° NNW 18:46:28 42° NNW
CZ-4 R/B 3.5 18:45:51 10° SSW 18:49:03 24° W 18:52:15 10° NW
Ariane Rocket 4.1 18:55:13 37° NNW 18:55:13 37° NNW 18:58:15 10° NNW
SeaSat 1 4.0 18:55:55 28° NNW 18:55:55 28° NNW 18:58:14 10° NNW
Cosmos 2237 Rocket 3.9 18:50:04 10° W 18:54:54 28° NW 18:56:54 23° N
Cosmos 2333 Rocket 4.3 18:55:49 10° WNW 18:59:35 17° NNW 19:01:21 15° N
Lacrosse 4 Rocket 4.2 18:57:36 10° NNW 18:57:49 11° NNW 18:57:49 11° NNW
Cosmos 2219 Rocket 4.4 19:02:04 10° WNW 19:05:30 16° NNW 19:06:56 15° N
Cosmos 2315 Rocket 4.4 19:00:19 10° NNW 19:05:07 54° NNW 19:05:07 54° NNW
Cosmos 1943 Rocket 3.4 19:02:09 10° NW 19:07:21 39° WSW 19:09:31 28° SSW
Meteor 2-4 Rocket 4.4 19:02:35 10° SSW 19:06:55 49° SW 19:06:55 49° SW
ATLAS 2AS CENTAUR R/B 3.9 19:04:17 10° WNW 19:11:31 35° N 19:12:00 35° N
Cosmos 2344 4.4 19:08:25 10° NW 19:17:47 79° SW 19:22:29 44° SSE
USA 215 3.6 19:23:38 58° NNW 19:23:38 58° NNW 19:29:26 10° W
Lacrosse 5 4.4 19:20:04 10° SSW 19:20:28 12° SSW 19:20:28 12° SSW
